星链-38360(STARLINK-38360)

导读

STARLINK-38360(NORAD编号100517)是SpaceX星链巨型星座的低轨互联网卫星,由SpaceX制造,设计寿命约5年。该卫星于2025年5月14日由猎鹰9号火箭发射升空,执行任务的B1090-4助推器发射后约8分钟成功在大西洋无人回收船着陆,这是SpaceX第492次发射、猎鹰9号第476次飞行。其初始运行轨道高度约550千米,后续将随星链整体轨道调整降至约480千米,为地面提供千兆级高速互联网服务,覆盖通信基础设施薄弱区域;卫星具备完全再入解体设计,故障时可快速离轨,降低空间碎片风险,但在轨运行可能对光学和射电天文观测造成干扰。

基本信息
目录编号:
100517
目录名称:
STARLINK-38360
国际标识:
2026-197R
轨道中心:
EARTH
卫星名称:
星链-38360
卫星全名:
星链-38360(STARLINK-38360)
卫星状态:
在轨 (已飞行10 天)
发射日期:
2026-08-26 UTC
国别 :
美国 (US)
星等 :
--
轨道信息
数据来源 国际轨道数据
星历时间: 2026-09-05T06:56:03+0800
6小时前
查看轨道信息
半长轴: 6702.279km
偏心率: 0.0004301
轨道倾角: 69.998°
近地点辐角 265.120°
升交点赤经 166.030°
平近点角 94.951°
近地点: 321.259km
远地点: 327.025km
周期: 91.011分钟
每日圈数: 15.822279
详细信息
固有亮度:
5
最大亮度:
2.5
卫星平台:
Starlink V1.0
覆盖范围:
全球
运营商:
太空探索技术公司
运营商所在国:
美国
制造商(研发单位):
太空探索技术公司
制造商所在国:
美国
使用方式:
暂无
卫星简介
Starlink 计划是 SpaceX 推出的全球卫星互联网项目,通过发射低轨道卫星,为全球尤其是偏远地区提供高速、低延迟的互联网服务。自 2019 年起,Starlink 已部署数千颗卫星,旨在缩小全球数字鸿沟,推动互联网普及。该项目还为军事、航空等行业提供通信支持,带来广泛经济效益。
2D轨道图
3D轨道图
轨道高度分析图
轨道倾角分析图
轨道综合分析图
查看轨道综合分析图